Probability
18 20 22 22 19 15 10 6 3 2 1 1 0 0 1 1 1 1 0 0 0 0 0 0 0 0 0 0 0 0 0 0 0 0 0 0 0 0 0 0 0 0 0
22 21 20 17 14 12 9 6 3 3 3 3 1 1 1 2 2 2 1 0 0 0 0 0 0 0 0 0 0 0 0 0 0 0 0 0 0 0 0 0 0 0 0
23 20 15 11 8 9 8 6 4 4 5 5 3 2 1 2 2 2 1 0 0 0 0 0 0 0 0 0 0 0 0 0 0 0 0 0 0 0 0 0 0 0 0
17 14 11 7 5 5 5 4 4 4 5 5 4 3 2 2 2 2 1 0 0 0 0 0 0 0 0 0 0 0 0 0 0 0 0 0 0 0 0 0 0 0 0
9 8 8 6 3 3 2 2 3 4 4 4 4 3 3 2 1 1 1 0 0 0 0 0 0 0 0 0 0 0 0 0 0 0 0 0 0 0 0 0 0 0 0
2 3 4 4 3 2 1 1 2 3 3 3 3 3 3 2 1 1 0 0 0 0 0 0 0 0 0 0 0 0 0 0 0 0 0 0 0 0 0 0 0 0 0
0 1 2 3 3 2 1 1 2 3 3 3 3 3 3 3 2 2 1 1 0 0 0 0 0 0 0 0 0 0 0 0 0 0 0 0 0 0 0 0 0 0 0
0 1 2 3 3 1 1 1 2 2 3 3 3 2 2 2 3 3 3 2 1 0 0 0 0 0 0 0 0 0 0 0 0 0 0 0 0 0 0 0 0 0 0
0 0 1 2 2 1 0 1 1 1 2 2 2 1 1 1 1 2 3 3 2 1 0 0 0 0 0 0 0 0 0 0 0 0 0 0 0 0 0 0 0 0 0
0 0 0 1 1 0 0 1 1 1 2 3 2 1 0 0 0 1 1 2 2 1 0 0 0 0 0 0 0 0 0 0 0 0 0 0 0 0 0 0 0 0 0
0 1 1 0 0 0 0 1 2 3 3 3 2 1 0 0 0 0 0 1 1 0 0 0 0 0 0 0 0 0 0 0 0 0 0 0 0 0 0 0 0 0 0
1 2 1 0 0 0 0 1 3 3 3 3 2 1 0 0 0 0 0 0 0 0 0 0 0 0 0 0 0 0 0 0 0 0 0 0 0 0 0 0 0 0 0
2 2 2 1 0 0 1 2 3 3 3 3 2 1 0 0 0 1 1 0 0 0 0 0 0 0 0 0 0 0 0 0 0 0 0 0 0 0 0 0 0 0 0
3 3 2 1 1 1 1 1 3 3 3 3 2 1 0 0 0 1 1 0 0 0 0 0 0 0 0 0 0 0 0 0 0 0 0 0 0 0 0 0 0 0 0
2 2 1 1 0 1 1 1 1 2 3 4 3 2 1 0 0 0 0 0 0 0 0 0 0 0 0 0 0 0 0 0 0 0 0 0 0 0 0 0 0 0 0
1 1 0 0 0 0 0 0 0 1 3 5 5 4 3 1 0 0 0 1 0 0 0 0 0 0 0 0 0 0 0 0 0 0 0 0 0 0 0 0 0 0 0
0 0 0 0 0 0 0 0 0 1 3 5 6 6 5 3 1 0 0 0 0 0 0 0 0 0 0 0 0 0 0 0 0 0 0 0 0 0 0 0 0 0 0
0 0 0 0 0 0 0 0 0 1 1 3 6 6 6 4 2 0 0 0 0 0 0 0 0 0 0 0 0 0 0 0 0 0 0 0 0 0 0 0 0 0 0
0 0 0 0 0 0 0 0 0 0 1 3 5 6 5 4 2 0 0 0 0 0 0 0 0 0 0 0 0 0 0 0 0 0 0 0 0 0 0 0 0 0 0
1 1 1 1 1 1 0 0 0 0 1 4 5 5 4 3 2 0 0 0 0 0 0 0 0 0 0 0 0 0 0 0 0 0 0 0 0 0 0 0 0 0 0
3 3 2 2 2 1 0 1 1 1 2 4 5 5 4 3 1 0 0 0 0 0 0 0 0 0 0 0 0 0 0 0 0 0 0 0 0 0 0 0 0 0 0
5 4 3 2 2 1 1 2 3 3 4 4 4 3 3 2 1 0 0 0 0 0 0 0 0 0 0 0 0 0 0 0 0 0 0 0 0 0 0 0 0 0 0
4 3 2 1 1 1 2 4 4 4 4 4 2 1 1 1 0 0 0 0 0 0 0 0 0 0 0 0 0 0 0 0 0 0 0 0 0 0 0 0 0 0 0
3 3 2 1 1 1 1 3 3 3 2 2 1 0 0 0 0 0 0 0 0 0 0 0 0 0 0 0 0 0 0 0 0 0 0 0 0 0 0 0 0 0 0
1 2 3 3 2 1 0 1 1 1 1 1 0 0 0 0 0 0 0 0 0 0 0 0 0 0 0 0 0 0 0 0 0 0 0 0 0 0 0 0 0 0 0
0 1 3 3 2 1 0 0 0 0 0 0 0 0 0 0 0 0 0 0 0 0 0 0 0 0 0 0 0 0 0 0 0 0 0 0 0 0 0 0 0 0 0
Wind_Speed
5 6 6 7 8 9 9 10 10 8 7 5 4 4 4 3 3 3 4 5 5 5 5 3 3 3 3 3 4 3 3 2 1 2 2 2 2 0 1 1 2 3 4
5 6 7 8 9 10 10 10 9 8 7 5 4 3 3 3 2 3 3 4 5 5 5 5 4 4 3 3 3 3 2 2 1 2 2 1 2 2 1 1 2 3 3
8 8 9 9 9 10 11 10 9 8 8 7 5 4 3 3 2 2 3 4 5 5 5 6 5 4 4 4 4 4 4 3 1 1 3 3 2 2 2 2 1 2 2
7 8 9 10 10 9 8 8 8 8 8 8 7 7 5 4 4 4 3 4 5 5 5 6 5 5 4 4 4 3 3 4 2 1 1 1 3 2 1 2 1 2 2
7 8 8 8 8 8 8 8 8 8 8 8 8 7 5 4 3 3 4 4 3 4 5 5 5 5 4 4 4 4 3 3 3 3 2 2 1 1 2 1 2 2 2
6 6 5 6 7 7 7 8 8 7 8 8 8 8 7 6 6 5 5 4 2 3 4 5 5 5 4 5 4 4 4 3 3 2 2 3 2 2 2 2 1 2 2
6 7 7 7 7 8 8 8 9 8 8 9 8 8 8 8 8 6 6 5 4 3 5 5 5 4 4 5 4 4 4 4 4 3 2 2 2 2 3 2 1 1 2
7 7 8 8 7 8 8 8 8 8 8 8 7 7 7 6 5 6 5 6 5 5 5 6 5 5 5 5 5 4 3 3 3 3 3 2 2 2 3 3 3 1 1
7 8 8 7 7 7 7 8 8 7 7 8 7 6 7 6 6 5 5 4 4 5 6 6 6 5 5 5 5 3 4 4 3 3 3 2 1 2 2 2 3 3 2
6 6 6 6 5 5 6 6 7 7 7 7 7 7 7 7 6 5 6 5 5 5 6 6 6 6 5 5 5 4 4 4 3 2 3 2 1 1 1 2 2 2 3
7 6 5 5 5 5 5 6 6 6 6 7 6 6 6 6 5 5 6 5 5 5 6 6 6 6 6 5 5 4 4 4 3 3 3 2 2 2 1 1 2 2 2
5 6 6 6 6 5 5 5 5 6 6 6 6 6 5 5 5 5 5 5 5 5 6 6 5 5 5 5 5 5 4 4 3 3 3 2 2 2 2 1 2 2 2
5 5 5 5 6 5 4 4 5 5 5 6 6 5 5 5 5 5 4 5 5 5 5 5 5 4 4 5 4 4 4 4 3 2 2 1 2 1 1 1 1 1 1
5 5 5 5 5 4 4 4 4 4 5 5 6 5 5 5 5 4 5 5 5 6 6 5 5 4 4 4 4 4 4 3 3 3 2 1 2 1 1 1 1 1 1
4 5 5 4 4 4 4 4 3 3 4 5 5 5 5 5 5 5 5 5 6 6 6 6 5 5 4 3 4 4 4 4 4 4 4 4 5 4 2 1 1 1 1
4 5 5 5 4 4 4 4 4 4 4 5 5 4 5 6 6 5 6 6 6 6 7 6 6 6 4 5 6 6 5 5 5 5 5 6 7 9 10 10 9 6 3
4 5 4 4 4 4 4 5 5 5 5 5 4 5 6 6 6 6 6 6 6 6 7 7 7 7 6 8 8 9 7 7 6 5 5 5 6 6 6 10 13 14 14
4 4 4 4 3 4 4 5 5 6 6 6 6 6 6 7 7 7 7 7 7 7 6 7 7 7 7 10 11 12 9 8 7 7 6 6 6 6 6 8 10 10 10
3 4 4 4 5 5 6 7 6 6 6 6 6 6 7 8 8 8 8 8 8 8 8 7 8 8 8 10 10 9 8 8 9 8 8 7 7 9 9 9 9 9 7
3 4 4 5 5 5 7 8 7 7 7 7 7 7 7 8 9 9 9 8 9 9 9 9 9 9 8 10 11 10 7 8 7 7 8 12 11 11 11 9 8 8 6
4 5 6 5 4 5 7 8 8 7 7 8 9 9 9 9 10 10 9 10 10 10 9 10 9 9 9 10 12 10 7 7 8 7 7 7 13 14 13 10 8 8 6
5 5 6 6 5 5 8 9 8 8 9 10 11 10 10 9 9 11 10 9 10 10 9 9 9 8 8 10 11 13 11 9 9 7 6 7 13 14 13 10 11 11 8
4 5 7 7 6 6 7 9 8 9 11 12 11 11 11 10 9 10 10 8 8 8 7 7 7 6 6 8 13 13 14 13 9 8 12 11 12 12 11 14 13 9 7
5 5 7 8 7 7 8 9 9 10 12 12 11 10 11 11 9 8 7 7 7 7 7 7 7 6 6 5 5 6 8 11 10 8 11 13 13 10 10 9 8 7 6
5 6 7 9 9 9 9 8 9 11 13 12 11 11 11 11 10 10 8 8 6 5 8 6 6 7 6 5 6 6 6 5 6 7 6 6 6 7 6 6 6 6 6
7 8 9 10 9 10 10 8 8 10 12 12 10 9 9 9 9 10 11 16 13 14 13 10 8 7 9 11 13 13 12 11 9 8 6 6 5 5 5 5 5 5 5
Wind_Direction
163 150 156 163 160 166 169 173 169 167 157 154 157 157 167 162 159 163 167 168 162 159 156 154 151 150 150 154 145 120 110 95 107 94 51 14 13 328 253 242 230 228 224
161 164 165 170 173 176 176 177 174 165 165 164 154 150 145 148 148 150 158 162 160 160 163 158 157 153 137 133 143 135 126 105 110 124 104 29 348 339 341 266 237 239 227
175 175 176 176 176 180 180 178 174 166 164 155 136 126 108 96 122 155 165 169 166 165 161 160 151 152 151 160 164 156 147 142 114 126 140 148 215 292 321 308 274 258 231
175 179 179 181 181 181 174 170 168 167 161 157 164 164 166 172 185 174 172 163 166 166 164 159 155 159 158 161 171 159 151 142 147 124 89 135 153 154 297 319 307 282 246
176 179 175 174 172 172 169 166 164 167 162 168 173 170 171 171 155 149 158 162 163 166 166 159 158 162 160 164 163 154 154 150 154 157 146 120 90 111 145 259 310 315 277
170 162 155 153 156 158 162 164 167 168 165 171 175 175 174 165 158 167 170 167 161 163 167 161 161 163 161 164 165 160 159 158 149 149 151 155 157 171 162 188 246 279 290
162 154 155 160 164 165 168 168 171 173 170 175 179 180 179 175 179 179 179 172 171 177 183 172 166 167 168 163 155 155 161 164 160 163 165 169 171 156 154 157 186 256 294
171 169 171 170 171 171 170 170 177 177 173 175 179 180 178 177 185 183 180 182 185 184 177 174 173 172 167 162 156 154 165 164 168 169 162 164 178 171 171 166 156 170 303
176 173 168 167 169 171 173 173 175 176 178 178 175 176 177 179 185 183 182 186 184 179 175 176 173 172 169 164 158 160 165 161 173 173 171 171 188 185 189 178 169 164 200
170 165 163 162 165 167 165 165 173 181 181 180 182 183 182 183 183 177 184 187 186 178 170 175 175 171 171 167 162 161 165 164 174 174 168 177 191 182 180 183 185 181 182
172 163 157 156 157 157 160 167 173 175 178 182 182 178 180 179 174 180 186 183 178 173 175 176 172 171 170 168 166 169 168 172 178 176 175 191 181 180 184 176 177 186 183
161 154 150 152 154 160 164 169 176 179 181 175 172 175 171 169 174 185 184 174 172 170 170 165 165 171 168 166 170 174 171 172 179 181 176 197 184 185 184 180 192 198 201
143 143 144 149 154 160 164 167 173 177 168 162 165 167 170 173 179 181 173 164 162 156 151 149 151 156 155 157 164 162 160 163 166 162 168 181 159 174 169 179 195 210 205
148 150 149 151 153 156 155 157 167 168 162 158 160 171 181 178 172 160 151 150 148 143 140 137 137 135 136 144 147 148 146 141 134 128 126 119 137 170 169 166 196 176 160
149 155 152 149 149 151 150 153 157 153 153 153 161 173 170 160 148 141 136 131 132 136 131 122 113 109 111 121 134 135 131 124 112 94 85 74 74 73 82 86 83 116 121
154 155 154 149 151 153 153 154 152 146 139 148 160 155 146 140 135 132 128 125 123 121 116 114 109 97 91 94 111 118 113 108 102 93 81 72 61 64 68 69 64 60 60
153 155 156 150 151 152 155 157 150 135 133 136 134 127 127 126 126 124 119 117 113 105 100 101 100 94 84 92 100 105 101 91 85 82 78 72 62 63 74 72 67 58 53
143 143 145 144 138 132 136 135 130 130 131 127 119 114 117 116 113 112 108 102 97 96 93 93 96 92 81 87 94 96 90 83 74 71 73 77 66 65 82 83 73 64 53
135 131 137 140 137 135 135 127 123 123 125 124 118 118 117 116 113 110 106 101 97 91 86 82 83 85 75 76 89 97 93 85 73 64 62 70 71 66 80 85 81 70 56
113 121 121 117 122 128 129 122 121 119 120 120 117 114 113 112 109 108 103 97 95 91 86 77 70 74 74 71 80 91 96 91 83 71 62 61 70 66 70 78 80 74 55
100 111 113 110 111 116 116 114 113 112 111 107 102 99 99 103 106 103 100 101 98 93 87 81 68 62 62 64 71 81 93 100 93 81 69 63 69 70 68 71 72 74 71
91 99 102 94 89 103 110 107 106 107 106 104 101 99 99 101 103 103 99 98 101 98 92 85 73 57 52 57 67 73 82 93 94 88 81 75 74 72 68 68 66 63 62
89 92 98 90 78 79 100 106 104 108 107 103 101 100 96 95 99 103 104 99 94 95 93 90 84 71 60 58 65 74 80 84 87 89 90 82 75 72 67 62 60 56 55
98 101 104 100 89 82 88 100 105 103 104 104 101 100 98 93 86 84 90 97 100 103 101 98 95 87 74 68 69 75 81 82 86 86 80 73 67 66 63 56 51 50 50
99 102 104 102 97 94 91 93 101 106 105 103 102 100 98 98 88 77 65 75 65 99 112 108 106 104 91 72 90 98 91 94 99 95 78 69 64 61 56 52 47 43 40
103 102 102 101 97 95 92 89 96 107 110 108 104 103 103 100 99 96 81 60 72 76 82 94 101 87 99 101 92 89 90 91 95 85 78 73 68 64 57 51 43 36 29